Погода в Батурино

Россия / Смоленская область     55°33′45″N   32°47′50″E
темп.,
°C
ветер,
м/с
пор.,
м/с
влажн.,
%
обл.,
%
осадки,
мм/ч
давл.,
гПа
погр.,
м
20 июня, вс
вс2000:00+17ю11880 0.0 102311
03:00+16ююв22920 0.0 102319
06:00+18ю13870 0.0 102390
09:00+24ю23670 0.0 1022524
12:00+28ю23521 0.0 10211618
15:00+29ю23443 0.0 10202078
18:00+28ююв33544 0.0 1019934
21:00+22ю22797 0.0 101939
21 июня, пн
пн2100:00+18ю2486100 0.1 102074
03:00+17юв228896 0.1 102028
06:00+18юв2287100 0.0 102172
09:00+23юв3465100 0.0 1020504
12:00+27юв4546100 0.0 10201139
15:00+28вюв3440100 0.0 10191254
18:00+27юв355259 0.0 1018847
21:00+21вюв35795 0.0 101891
22 июня, вт
вт2200:00+19юв39915 0.0 1019177
03:00+18юв3897100 0.0 1019166
06:00+19юв3792100 0.0 1019198
09:00+25юв476592 0.0 1019595
12:00+29ююв57445 0.0 10181296
15:00+31ююв57375 0.0 10171721
18:00+30ююв48455 0.0 10171408
21:00+23юв36790 0.0 101898
23 июня, ср
ср2300:00+20ююв39900 0.0 1019176
03:00+19ююв25971 0.0 1019113
06:00+20ююв26955 0.0 1020177
09:00+26ююв36690 0.0 1019636
12:00+30ююв464621 0.0 10191573
15:00+32ююв453924 0.0 10182267
18:00+31ю34464 0.0 10181138
21:00+24ю11750 0.0 101911
24 июня, чт
чт2400:00+21ююв37820 0.0 1019140
03:00+20ю24895 0.0 102061
06:00+21ю25895 0.0 1020146
09:00+27ююв24665 0.0 1020539
12:00+31ю34434 0.0 10191451
15:00+33ю34352 0.0 10192252
18:00+30юз45495 0.0 1019797
21:00+24ююз22750 0.0 101732